Location: Indian Hills
(32.9760°N, 85.9450°W)
Time: 05:29:21
(UTC+00:00)

FengYun 1-2 T - Pass Details

Date: 09 December 2019
Orbit: 847 x 880 km, 98.7° (Epoch: 24 January)

Event Time Altitude Azimuth Distance (km) Brightness Sun altitude
Rises 00:07:34 0° 168° (SSE) 3,395 7.4 -18.5°
Reaches altitude 10° 00:09:55 10° 170° (S) 2,461 6.7 -19.0°
Maximum altitude 00:15:23 81° 257° (WSW) 862 4.3 -20.1°
Drops below altitude 10° 00:20:53 10° 345° (NNW) 2,478 6.6 -21.2°
Sets 00:23:16 0° 346° (NNW) 3,419 7.4 -21.7°
